When you browse on this site, cookies collect data to enhance your experience and personalize the content and advertising you see.
Visit our Privacy Policy to learn more. By continuing to use the site, you agree to this use of cookies and data.
  • en France
  • Liste des pays
  • À 7 jours
  • Température de l'eau
  • Carte météo
  • Widgets météo
  • user-avatar
    Se connecter

    Météo par heure à Winter Gardens

    Ce jour, 26 Mai, Mardi

    Heure Température Précipitation Vent Pression Humidité
    00:00 +22°C° 0 mm 1 m/s 736 mmHg 57%
    01:00 +22°C° 0 mm 1 m/s 735 mmHg 57%
    02:00 +21°C° 0 mm 1 m/s 735 mmHg 58%
    03:00 +21°C° 0 mm 1 m/s 735 mmHg 60%
    04:00 +18°C° 0 mm 0 m/s 735 mmHg 62%
    05:00 +20°C° 0 mm 0 m/s 735 mmHg 55%
    06:00 +22°C° 0 mm 0 m/s 736 mmHg 49%
    07:00 +24°C° 0 mm 0 m/s 736 mmHg 42%
    08:00 +28°C° 0 mm 1 m/s 736 mmHg 37%
    09:00 +30°C° 0 mm 2 m/s 737 mmHg 32%
    10:00 +33°C° 0 mm 3 m/s 737 mmHg 26%
    11:00 +33°C° 0 mm 3 m/s 737 mmHg 27%
    12:00 +33°C° 0 mm 3 m/s 736 mmHg 27%
    13:00 +33°C° 0 mm 4 m/s 736 mmHg 27%
    14:00 +33°C° 0 mm 4 m/s 736 mmHg 26%
    15:00 +33°C° 0 mm 3 m/s 735 mmHg 25%
    16:00 +33°C° 0 mm 3 m/s 735 mmHg 23%
    17:00 +30°C° 0 mm 3 m/s 735 mmHg 28%
    18:00 +28°C° 0 mm 2 m/s 735 mmHg 32%
    19:00 +26°C° 0 mm 2 m/s 736 mmHg 37%
    20:00 +25°C° 0 mm 1 m/s 736 mmHg 39%
    21:00 +25°C° 0 mm 1 m/s 736 mmHg 41%
    22:00 +22°C° 0 mm 0 m/s 737 mmHg 43%
    23:00 +24°C° 0 mm 1 m/s 736 mmHg 44%

    Demain, 27 Mai, Mercredi

    Heure Température Précipitation Vent Pression Humidité
    00:00 +23°C° 0 mm 1 m/s 736 mmHg 44%
    01:00 +23°C° 0 mm 1 m/s 736 mmHg 45%
    02:00 +20°C° 0 mm 0 m/s 736 mmHg 47%
    03:00 +20°C° 0 mm 0 m/s 736 mmHg 49%
    04:00 +19°C° 0 mm 0 m/s 735 mmHg 51%
    05:00 +21°C° 0 mm 0 m/s 736 mmHg 45%
    06:00 +25°C° 0 mm 1 m/s 736 mmHg 39%
    07:00 +27°C° 0 mm 1 m/s 736 mmHg 33%
    08:00 +28°C° 0 mm 1 m/s 736 mmHg 30%
    09:00 +30°C° 0 mm 2 m/s 737 mmHg 27%
    10:00 +33°C° 0 mm 3 m/s 737 mmHg 24%
    11:00 +33°C° 0 mm 3 m/s 736 mmHg 24%
    12:00 +34°C° 0 mm 4 m/s 736 mmHg 23%
    13:00 +34°C° 0 mm 4 m/s 736 mmHg 23%
    14:00 +34°C° 0 mm 4 m/s 736 mmHg 24%
    15:00 +33°C° 0 mm 3 m/s 736 mmHg 24%
    16:00 +33°C° 0 mm 3 m/s 735 mmHg 25%
    17:00 +30°C° 0 mm 3 m/s 736 mmHg 30%
    18:00 +28°C° 0 mm 2 m/s 736 mmHg 34%
    19:00 +26°C° 0 mm 2 m/s 736 mmHg 39%
    20:00 +25°C° 0 mm 1 m/s 736 mmHg 43%
    21:00 +24°C° 0 mm 1 m/s 737 mmHg 46%
    22:00 +23°C° 0 mm 1 m/s 737 mmHg 50%
    23:00 +23°C° 0 mm 1 m/s 737 mmHg 51%

    Après-demain, 28 Mai, Jeudi

    Heure Température Précipitation Vent Pression Humidité
    00:00 +22°C° 0 mm 1 m/s 737 mmHg 52%
    01:00 +20°C° 0 mm 0 m/s 736 mmHg 53%
    02:00 +20°C° 0 mm 0 m/s 736 mmHg 53%
    03:00 +19°C° 0 mm 0 m/s 736 mmHg 54%
    04:00 +19°C° 0 mm 0 m/s 736 mmHg 54%
    05:00 +21°C° 0 mm 0 m/s 736 mmHg 49%
    06:00 +23°C° 0 mm 0 m/s 736 mmHg 44%
    07:00 +26°C° 0 mm 1 m/s 737 mmHg 39%
    08:00 +28°C° 0 mm 1 m/s 737 mmHg 36%
    09:00 +30°C° 0 mm 2 m/s 737 mmHg 33%
    10:00 +31°C° 0 mm 3 m/s 737 mmHg 30%
    11:00 +33°C° 0 mm 3 m/s 737 mmHg 29%
    12:00 +33°C° 0 mm 3 m/s 737 mmHg 27%
    13:00 +34°C° 0 mm 4 m/s 736 mmHg 26%
    14:00 +33°C° 0 mm 3 m/s 736 mmHg 28%
    15:00 +31°C° 0 mm 3 m/s 736 mmHg 30%
    16:00 +30°C° 0 mm 3 m/s 736 mmHg 31%
    17:00 +29°C° 0 mm 2 m/s 736 mmHg 36%
    18:00 +27°C° 0 mm 2 m/s 736 mmHg 41%
    19:00 +25°C° 0 mm 1 m/s 736 mmHg 46%
    20:00 +25°C° 0 mm 1 m/s 737 mmHg 48%
    21:00 +24°C° 0 mm 1 m/s 737 mmHg 50%
    22:00 +23°C° 0 mm 1 m/s 737 mmHg 53%
    23:00 +23°C° 0 mm 1 m/s 737 mmHg 54%

    29 Mai, Vendredi

    Heure Température Précipitation Vent Pression Humidité
    00:00 +22°C° 0 mm 1 m/s 736 mmHg 55%
    01:00 +22°C° 0 mm 1 m/s 736 mmHg 55%
    02:00 +19°C° 0 mm 0 m/s 736 mmHg 57%
    03:00 +19°C° 0 mm 0 m/s 736 mmHg 59%
    04:00 +18°C° 0 mm 0 m/s 736 mmHg 61%
    05:00 +22°C° 0 mm 1 m/s 736 mmHg 56%
    06:00 +23°C° 0 mm 1 m/s 737 mmHg 51%
    07:00 +25°C° 0 mm 1 m/s 737 mmHg 46%
    08:00 +26°C° 0 mm 2 m/s 737 mmHg 42%
    09:00 +28°C° 0 mm 2 m/s 738 mmHg 38%
    10:00 +29°C° 0 mm 3 m/s 738 mmHg 34%
    11:00 +29°C° 0 mm 3 m/s 738 mmHg 35%
    12:00 +29°C° 0 mm 4 m/s 737 mmHg 36%
    13:00 +29°C° 0 mm 4 m/s 737 mmHg 36%
    14:00 +29°C° 0 mm 4 m/s 737 mmHg 37%
    15:00 +28°C° 0 mm 4 m/s 737 mmHg 37%
    16:00 +28°C° 0 mm 4 m/s 737 mmHg 37%
    17:00 +26°C° 0 mm 3 m/s 737 mmHg 43%
    18:00 +24°C° 0 mm 2 m/s 737 mmHg 50%
    19:00 +21°C° 0 mm 2 m/s 737 mmHg 56%
    20:00 +21°C° 0 mm 2 m/s 737 mmHg 61%
    21:00 +20°C° 0 mm 2 m/s 737 mmHg 65%
    22:00 +20°C° 0 mm 1 m/s 738 mmHg 70%
    23:00 +20°C° 0 mm 1 m/s 737 mmHg 73%

    30 Mai, Samedi

    Heure Température Précipitation Vent Pression Humidité
    00:00 +19°C° 0 mm 1 m/s 737 mmHg 75%
    01:00 +19°C° 0 mm 1 m/s 737 mmHg 78%
    02:00 +18°C° 0 mm 1 m/s 737 mmHg 79%
    03:00 +18°C° 0 mm 1 m/s 737 mmHg 81%
    04:00 +16°C° 0 mm 1 m/s 737 mmHg 83%
    05:00 +19°C° 0 mm 1 m/s 737 mmHg 75%
    06:00 +20°C° 0 mm 1 m/s 738 mmHg 67%
    07:00 +21°C° 0 mm 1 m/s 738 mmHg 59%
    08:00 +23°C° 0 mm 2 m/s 738 mmHg 51%
    09:00 +25°C° 0 mm 2 m/s 738 mmHg 43%
    10:00 +26°C° 0 mm 3 m/s 738 mmHg 35%
    11:00 +27°C° 0 mm 4 m/s 738 mmHg 36%
    12:00 +27°C° 0 mm 5 m/s 737 mmHg 36%
    13:00 +28°C° 0 mm 5 m/s 737 mmHg 37%
    14:00 +27°C° 0 mm 5 m/s 737 mmHg 37%
    15:00 +27°C° 0 mm 5 m/s 736 mmHg 36%
    16:00 +26°C° 0 mm 5 m/s 736 mmHg 36%
    17:00 +25°C° 0 mm 4 m/s 736 mmHg 42%
    18:00 +22°C° 0 mm 3 m/s 736 mmHg 48%
    19:00 +20°C° 0 mm 3 m/s 736 mmHg 53%
    20:00 +19°C° 0 mm 2 m/s 736 mmHg 58%
    21:00 +19°C° 0 mm 2 m/s 736 mmHg 63%
    22:00 +18°C° 0 mm 2 m/s 737 mmHg 68%
    23:00 +19°C° 0 mm 1 m/s 736 mmHg 69%

    31 Mai, Dimanche

    Heure Température Précipitation Vent Pression Humidité
    00:00 +18°C° 0 mm 1 m/s 736 mmHg 70%
    01:00 +18°C° 0 mm 1 m/s 735 mmHg 71%
    02:00 +18°C° 0 mm 1 m/s 735 mmHg 71%
    03:00 +18°C° 0 mm 1 m/s 735 mmHg 71%
    04:00 +15°C° 0 mm 0 m/s 735 mmHg 71%
    05:00 +17°C° 0 mm 0 m/s 735 mmHg 65%
    06:00 +21°C° 0 mm 1 m/s 736 mmHg 58%
    07:00 +22°C° 0 mm 1 m/s 736 mmHg 51%
    08:00 +24°C° 0 mm 1 m/s 736 mmHg 46%
    09:00 +26°C° 0 mm 2 m/s 736 mmHg 42%
    10:00 +27°C° 0 mm 2 m/s 736 mmHg 37%
    11:00 +28°C° 0 mm 3 m/s 736 mmHg 35%
    12:00 +29°C° 0 mm 4 m/s 736 mmHg 34%
    13:00 +30°C° 0 mm 4 m/s 735 mmHg 33%
    14:00 +29°C° 0 mm 4 m/s 735 mmHg 34%
    15:00 +29°C° 0 mm 4 m/s 735 mmHg 35%
    16:00 +28°C° 0 mm 3 m/s 734 mmHg 36%
    17:00 +26°C° 0 mm 3 m/s 734 mmHg 44%
    18:00 +24°C° 0 mm 2 m/s 734 mmHg 52%
    19:00 +21°C° 0 mm 2 m/s 735 mmHg 60%
    20:00 +21°C° 0 mm 2 m/s 735 mmHg 64%
    21:00 +21°C° 0 mm 1 m/s 735 mmHg 68%
    22:00 +20°C° 0 mm 1 m/s 735 mmHg 72%
    23:00 +20°C° 0 mm 1 m/s 735 mmHg 73%
    Voir plus